| time (UTC) | temp F | wind direction | speed MPH | gust MPH | rain 1hr in | rain 24hr in | rain mn in | humidity % | barometer mb |
| 20260503234018 | 49 | 170 | 3.0 | 10.0 | 0.00 | 0.01 | 0.01 | 98 | 1020.7 |
| 20260503233515 | 49 | 133 | 2.0 | 10.0 | 0.00 | 0.01 | 0.01 | 98 | 1020.7 |
| 20260503233014 | 49 | 359 | 2.0 | 10.0 | 0.00 | 0.01 | 0.01 | 98 | 1020.7 |
| 20260503232514 | 49 | 193 | 3.0 | 8.0 | 0.00 | 0.01 | 0.01 | 98 | 1020.6 |
| 20260503232018 | 49 | 210 | 3.0 | 8.0 | 0.00 | 0.01 | 0.01 | 98 | 1020.6 |
| 20260503231513 | 49 | 244 | 2.0 | 8.0 | 0.00 | 0.01 | 0.01 | 98 | 1020.6 |
| 20260503231014 | 49 | 112 | 3.0 | 8.0 | 0.00 | 0.01 | 0.01 | 98 | 1020.6 |
| 20260503230513 | 49 | 359 | 2.0 | 7.0 | 0.00 | 0.01 | 0.01 | 98 | 1020.6 |
| 20260503230013 | 49 | 359 | 3.0 | 7.0 | 0.00 | 0.01 | 0.01 | 98 | 1020.4 |
| 20260503225013 | 49 | 170 | 1.0 | 7.0 | 0.00 | 0.01 | 0.01 | 98 | 1020.3 |
| 20260503224513 | 49 | 359 | 2.0 | 6.0 | 0.00 | 0.01 | 0.01 | 98 | 1020.3 |
| 20260503224020 | 49 | 194 | 2.0 | 6.0 | 0.00 | 0.01 | 0.01 | 98 | 1020.0 |
| 20260503223513 | 49 | 260 | 2.0 | 6.0 | 0.00 | 0.01 | 0.01 | 98 | 1020.1 |
| 20260503223011 | 49 | 263 | 1.0 | 6.0 | 0.00 | 0.01 | 0.01 | 98 | 1020.1 |
| 20260503222512 | 49 | 156 | 1.0 | 7.0 | 0.00 | 0.01 | 0.01 | 98 | 1020.1 |
| 20260503222013 | 49 | 212 | 3.0 | 7.0 | 0.00 | 0.01 | 0.01 | 98 | 1020.1 |
| 20260503221513 | 49 | 359 | 2.0 | 7.0 | 0.00 | 0.01 | 0.01 | 98 | 1019.9 |
| 20260503221010 | 49 | 141 | 2.0 | 7.0 | 0.00 | 0.01 | 0.01 | 98 | 1019.9 |
| 20260503220510 | 49 | 229 | 1.0 | 9.0 | 0.00 | 0.01 | 0.01 | 98 | 1020.0 |
| 20260503220010 | 49 | 158 | 2.0 | 9.0 | 0.00 | 0.01 | 0.01 | 98 | 1019.9 |
| 20260503215011 | 49 | 83 | 3.0 | 9.0 | 0.00 | 0.01 | 0.01 | 98 | 1019.9 |
| 20260503214509 | 49 | 220 | 1.0 | 6.0 | 0.00 | 0.01 | 0.01 | 98 | 1019.8 |
| 20260503214015 | 49 | 359 | 2.0 | 7.0 | 0.00 | 0.01 | 0.01 | 98 | 1019.7 |
| 20260503213508 | 49 | 203 | 3.0 | 8.0 | 0.00 | 0.01 | 0.01 | 98 | 1019.6 |
| 20260503213022 | 49 | 166 | 3.0 | 7.0 | 0.00 | 0.02 | 0.01 | 98 | 1019.5 |
| 20260503212508 | 49 | 147 | 1.0 | 8.0 | 0.00 | 0.02 | 0.01 | 98 | 1019.6 |
| 20260503212007 | 49 | 220 | 2.0 | 6.0 | 0.00 | 0.02 | 0.01 | 98 | 1019.5 |
| 20260503211515 | 49 | 122 | 1.0 | 8.0 | 0.00 | 0.02 | 0.01 | 98 | 1019.6 |
| 20260503211009 | 49 | 168 | 3.0 | 6.0 | 0.00 | 0.02 | 0.01 | 98 | 1019.5 |
| 20260503210506 | 49 | 359 | 1.0 | 7.0 | 0.00 | 0.02 | 0.01 | 98 | 1019.7 |
| 20260503210006 | 49 | 185 | 2.0 | 7.0 | 0.00 | 0.02 | 0.01 | 98 | 1019.7 |
| 20260503205015 | 49 | 231 | 2.0 | 9.0 | 0.00 | 0.02 | 0.01 | 98 | 1019.6 |
| 20260503204507 | 49 | 108 | 2.0 | 9.0 | 0.00 | 0.02 | 0.01 | 98 | 1019.6 |
| 20260503204008 | 49 | 359 | 3.0 | 11.0 | 0.00 | 0.02 | 0.01 | 98 | 1019.6 |
| 20260503203507 | 49 | 190 | 3.0 | 11.0 | 0.00 | 0.02 | 0.01 | 98 | 1019.6 |
| 20260503203006 | 49 | 121 | 2.0 | 11.0 | 0.00 | 0.02 | 0.01 | 98 | 1019.5 |
| 20260503202509 | 49 | 161 | 2.0 | 7.0 | 0.00 | 0.02 | 0.01 | 98 | 1019.6 |
| 20260503202006 | 49 | 177 | 3.0 | 7.0 | 0.00 | 0.02 | 0.01 | 98 | 1019.5 |
| 20260503201518 | 49 | 359 | 2.0 | 6.0 | 0.00 | 0.02 | 0.01 | 98 | 1019.5 |
| 20260503201008 | 49 | 179 | 2.0 | 7.0 | 0.00 | 0.02 | 0.01 | 98 | 1019.5 |
| 20260503200506 | 49 | 192 | 2.0 | 8.0 | 0.00 | 0.02 | 0.01 | 98 | 1019.5 |
| 20260503200006 | 49 | 359 | 3.0 | 8.0 | 0.00 | 0.02 | 0.01 | 98 | 1019.5 |
| 20260503195005 | 50 | 212 | 2.0 | 6.0 | 0.00 | 0.02 | 0.01 | 98 | 1019.7 |
| 20260503194505 | 50 | 95 | 3.0 | 6.0 | 0.00 | 0.02 | 0.01 | 98 | 1019.7 |
| 20260503194007 | 50 | 246 | 1.0 | 7.0 | 0.00 | 0.02 | 0.01 | 98 | 1019.6 |
| 20260503193506 | 50 | 189 | 2.0 | 7.0 | 0.00 | 0.02 | 0.01 | 98 | 1019.6 |
| 20260503193005 | 50 | 164 | 0.0 | 8.0 | 0.00 | 0.02 | 0.01 | 98 | 1019.6 |
| 20260503192505 | 50 | 164 | 1.0 | 8.0 | 0.00 | 0.02 | 0.01 | 98 | 1019.7 |
| 20260503192005 | 50 | 190 | 3.0 | 7.0 | 0.00 | 0.02 | 0.01 | 98 | 1019.6 |
| 20260503191505 | 50 | 359 | 1.0 | 5.0 | 0.00 | 0.02 | 0.01 | 98 | 1019.7 |
| 20260503191005 | 50 | 359 | 0.0 | 5.0 | 0.00 | 0.02 | 0.01 | 98 | 1019.6 |
| 20260503190507 | 50 | 359 | 1.0 | 5.0 | 0.00 | 0.02 | 0.01 | 98 | 1019.6 |
| 20260503190016 | 50 | 359 | 1.0 | 6.0 | 0.00 | 0.02 | 0.01 | 98 | 1019.5 |
| 20260503185003 | 50 | 359 | 1.0 | 5.0 | 0.00 | 0.02 | 0.01 | 98 | 1019.5 |
| 20260503184503 | 50 | 359 | 0.0 | 5.0 | 0.00 | 0.02 | 0.01 | 98 | 1019.5 |
| 20260503184004 | 50 | 359 | 1.0 | 10.0 | 0.00 | 0.02 | 0.01 | 98 | 1019.4 |
| 20260503183507 | 50 | 183 | 3.0 | 10.0 | 0.00 | 0.02 | 0.01 | 98 | 1019.5 |
| 20260503183009 | 50 | 162 | 2.0 | 8.0 | 0.00 | 0.03 | 0.01 | 98 | 1019.4 |
| 20260503182503 | 50 | 188 | 3.0 | 8.0 | 0.00 | 0.03 | 0.01 | 98 | 1019.4 |
| 20260503182004 | 50 | 193 | 1.0 | 6.0 | 0.00 | 0.03 | 0.01 | 98 | 1019.4 |
| 20260503181507 | 50 | 166 | 1.0 | 4.0 | 0.00 | 0.03 | 0.01 | 98 | 1019.4 |
| 20260503181003 | 50 | 212 | 1.0 | 5.0 | 0.00 | 0.03 | 0.01 | 98 | 1019.5 |
| 20260503180503 | 50 | 28 | 1.0 | 7.0 | 0.00 | 0.03 | 0.01 | 98 | 1019.5 |
| 20260503180003 | 51 | 12 | 1.0 | 7.0 | 0.00 | 0.03 | 0.01 | 99 | 1019.5 |
| 20260503175004 | 51 | 210 | 2.0 | 7.0 | 0.00 | 0.03 | 0.01 | 99 | 1019.6 |
| 20260503174501 | 51 | 166 | 1.0 | 8.0 | 0.00 | 0.03 | 0.01 | 99 | 1019.6 |
| 20260503174002 | 51 | 175 | 2.0 | 8.0 | 0.00 | 0.03 | 0.01 | 99 | 1019.7 |
| 20260503173502 | 52 | 183 | 1.0 | 4.0 | 0.00 | 0.03 | 0.01 | 99 | 1019.6 |
| 20260503173103 | 52 | 183 | 0.0 | 5.0 | 0.00 | 0.03 | 0.01 | 99 | 1019.4 |
| 20260503172602 | 52 | 182 | 1.0 | 5.0 | 0.00 | 0.03 | 0.01 | 99 | 1019.4 |
| 20260503172059 | 52 | 177 | 0.0 | 7.0 | 0.00 | 0.03 | 0.01 | 99 | 1019.4 |
| 20260503171559 | 52 | 359 | 1.0 | 5.0 | 0.00 | 0.03 | 0.01 | 99 | 1019.5 |
| 20260503171058 | 52 | 359 | 1.0 | 5.0 | 0.00 | 0.03 | 0.01 | 99 | 1019.6 |
| 20260503170558 | 52 | 359 | 2.0 | 5.0 | 0.00 | 0.03 | 0.01 | 99 | 1019.6 |
| 20260503150548 | 50 | 359 | 2.0 | 9.0 | 0.00 | 0.03 | 0.01 | 98 | 1020.7 |
| 20260503131004 | 53 | 137 | 3.0 | 7.0 | 0.00 | 0.12 | 0.01 | 98 | 1020.7 |
| 20260503130503 | 53 | 169 | 2.0 | 5.0 | 0.00 | 0.12 | 0.01 | 99 | 1020.8 |
| 20260503110517 | 55 | 359 | 0.0 | 5.0 | 0.00 | 0.31 | 0.00 | 98 | 1019.2 |
| 20260503081602 | 54 | 187 | 0.0 | 0.0 | 0.00 | 0.31 | 0.31 | 98 | 1017.5 |
| 20260503081101 | 54 | 187 | 0.0 | 0.0 | 0.00 | 0.31 | 0.31 | 98 | 1017.3 |
| 20260503080559 | 54 | 187 | 0.0 | 0.0 | 0.00 | 0.31 | 0.31 | 98 | 1017.3 |
| 20260503072559 | 54 | 192 | 0.0 | 2.0 | 0.00 | 0.31 | 0.31 | 97 | 1016.8 |
| 20260503072058 | 54 | 192 | 0.0 | 2.0 | 0.00 | 0.31 | 0.31 | 97 | 1016.8 |
| 20260503071606 | 54 | 192 | 0.0 | 4.0 | 0.00 | 0.31 | 0.31 | 97 | 1016.8 |
| 20260503071100 | 54 | 192 | 1.0 | 7.0 | 0.00 | 0.31 | 0.31 | 96 | 1016.7 |
| 20260503070554 | 54 | 193 | 0.0 | 6.0 | 0.00 | 0.31 | 0.31 | 96 | 1016.8 |
| 20260503060112 | 55 | 185 | 7.0 | 15.0 | 0.00 | 0.31 | 0.31 | 97 | 1016.7 |
| 20260503055048 | 56 | 210 | 6.0 | 14.0 | 0.00 | 0.31 | 0.31 | 97 | 1016.7 |
| 20260503054547 | 56 | 224 | 7.0 | 14.0 | 0.00 | 0.31 | 0.31 | 97 | 1016.7 |
| 20260503054045 | 56 | 189 | 7.0 | 13.0 | 0.00 | 0.31 | 0.31 | 97 | 1016.9 |
| 20260503053545 | 56 | 359 | 5.0 | 12.0 | 0.00 | 0.31 | 0.31 | 97 | 1016.8 |
| 20260503053046 | 56 | 220 | 5.0 | 12.0 | 0.00 | 0.31 | 0.31 | 97 | 1016.9 |
| 20260503052543 | 56 | 190 | 5.0 | 12.0 | 0.00 | 0.31 | 0.31 | 97 | 1017.1 |
| 20260503052043 | 57 | 219 | 6.0 | 12.0 | 0.00 | 0.31 | 0.31 | 98 | 1017.1 |
| 20260503051542 | 57 | 220 | 5.0 | 9.0 | 0.00 | 0.31 | 0.31 | 97 | 1017.1 |
| 20260503051041 | 57 | 245 | 5.0 | 9.0 | 0.00 | 0.31 | 0.31 | 97 | 1017.1 |
| 20260503050541 | 57 | 359 | 6.0 | 9.0 | 0.00 | 0.31 | 0.31 | 97 | 1017.3 |
| 20260503050042 | 57 | 189 | 5.0 | 9.0 | 0.00 | 0.31 | 0.31 | 97 | 1017.2 |
| 20260503045642 | 57 | 208 | 4.0 | 9.0 | 0.00 | 0.31 | 0.31 | 97 | 1017.3 |
| 20260503045043 | 57 | 224 | 5.0 | 9.0 | 0.00 | 0.31 | 0.31 | 97 | 1017.3 |
| 20260503044610 | 57 | 220 | 5.0 | 9.0 | 0.00 | 0.31 | 0.31 | 97 | 1017.4 |
| 20260503044043 | 57 | 224 | 4.0 | 7.0 | 0.00 | 0.31 | 0.31 | 97 | 1017.4 |
| 20260503043543 | 57 | 181 | 3.0 | 7.0 | 0.00 | 0.31 | 0.31 | 97 | 1017.4 |
| 20260503043043 | 57 | 187 | 3.0 | 6.0 | 0.00 | 0.31 | 0.31 | 96 | 1017.4 |
| 20260503042546 | 57 | 201 | 3.0 | 7.0 | 0.00 | 0.31 | 0.31 | 96 | 1017.4 |
| 20260503042046 | 57 | 191 | 3.0 | 7.0 | 0.00 | 0.31 | 0.31 | 96 | 1017.5 |
| 20260503041543 | 58 | 190 | 4.0 | 7.0 | 0.00 | 0.31 | 0.31 | 96 | 1017.5 |
| 20260503041042 | 58 | 192 | 3.0 | 7.0 | 0.00 | 0.31 | 0.31 | 96 | 1017.5 |
| 20260503040542 | 58 | 197 | 4.0 | 7.0 | 0.00 | 0.31 | 0.31 | 96 | 1017.5 |
| 20260503040043 | 58 | 233 | 4.0 | 9.0 | 0.00 | 0.31 | 0.31 | 96 | 1017.6 |
| 20260503035642 | 58 | 226 | 4.0 | 8.0 | 0.00 | 0.31 | 0.31 | 96 | 1017.4 |
| 20260503035039 | 58 | 187 | 4.0 | 8.0 | 0.00 | 0.31 | 0.31 | 96 | 1017.5 |
| 20260503034539 | 58 | 189 | 4.0 | 9.0 | 0.00 | 0.31 | 0.31 | 96 | 1017.4 |
| 20260503034038 | 58 | 180 | 4.0 | 9.0 | 0.00 | 0.31 | 0.31 | 96 | 1017.4 |
| 20260503033538 | 58 | 204 | 4.0 | 8.0 | 0.00 | 0.31 | 0.31 | 96 | 1017.4 |
| 20260503033039 | 58 | 193 | 4.0 | 9.0 | 0.00 | 0.31 | 0.31 | 96 | 1017.4 |
| 20260503032539 | 58 | 192 | 3.0 | 9.0 | 0.00 | 0.31 | 0.31 | 95 | 1017.4 |
| 20260503032038 | 58 | 186 | 4.0 | 9.0 | 0.00 | 0.31 | 0.31 | 95 | 1017.3 |
| 20260503031540 | 58 | 205 | 5.0 | 8.0 | 0.00 | 0.31 | 0.31 | 95 | 1017.4 |
| 20260503031038 | 58 | 185 | 5.0 | 8.0 | 0.00 | 0.31 | 0.31 | 95 | 1017.5 |
| 20260503030537 | 58 | 191 | 4.0 | 8.0 | 0.00 | 0.31 | 0.31 | 95 | 1017.6 |
| 20260503030041 | 58 | 204 | 4.0 | 8.0 | 0.00 | 0.31 | 0.31 | 96 | 1017.7 |
| 20260503025639 | 58 | 177 | 2.0 | 5.0 | 0.00 | 0.31 | 0.31 | 96 | 1017.7 |
| 20260503025039 | 58 | 184 | 3.0 | 6.0 | 0.00 | 0.31 | 0.31 | 96 | 1017.7 |
| 20260503024537 | 58 | 183 | 3.0 | 6.0 | 0.00 | 0.31 | 0.31 | 96 | 1017.7 |
| 20260503024037 | 58 | 183 | 3.0 | 6.0 | 0.00 | 0.31 | 0.31 | 96 | 1017.7 |
| 20260503023537 | 58 | 181 | 3.0 | 5.0 | 0.00 | 0.31 | 0.31 | 96 | 1017.8 |
| 20260503023041 | 58 | 178 | 2.0 | 6.0 | 0.00 | 0.31 | 0.31 | 96 | 1017.7 |
| 20260503022536 | 58 | 172 | 1.0 | 6.0 | 0.00 | 0.31 | 0.31 | 96 | 1017.7 |
| 20260503022037 | 58 | 175 | 3.0 | 6.0 | 0.00 | 0.31 | 0.31 | 96 | 1017.8 |
| 20260503021539 | 58 | 191 | 3.0 | 6.0 | 0.00 | 0.31 | 0.31 | 97 | 1017.8 |
| 20260503021036 | 58 | 227 | 2.0 | 7.0 | 0.00 | 0.31 | 0.31 | 97 | 1017.7 |
| 20260503020536 | 57 | 231 | 3.0 | 7.0 | 0.00 | 0.31 | 0.31 | 97 | 1017.6 |
| 20260503020136 | 57 | 189 | 3.0 | 7.0 | 0.00 | 0.31 | 0.31 | 97 | 1017.6 |
| 20260503015636 | 57 | 215 | 4.0 | 6.0 | 0.00 | 0.31 | 0.31 | 98 | 1017.6 |
| 20260503015038 | 57 | 359 | 4.0 | 6.0 | 0.00 | 0.31 | 0.31 | 98 | 1017.7 |
| 20260503014549 | 57 | 359 | 2.0 | 7.0 | 0.00 | 0.31 | 0.31 | 97 | 1017.8 |
| 20260503014038 | 57 | 359 | 4.0 | 7.0 | 0.00 | 0.31 | 0.31 | 98 | 1017.7 |
| 20260503013541 | 57 | 359 | 4.0 | 7.0 | 0.00 | 0.31 | 0.31 | 97 | 1017.7 |
| 20260503013038 | 57 | 359 | 4.0 | 7.0 | 0.00 | 0.31 | 0.31 | 97 | 1017.8 |
| 20260503012541 | 57 | 359 | 3.0 | 7.0 | 0.00 | 0.31 | 0.31 | 97 | 1017.6 |
| 20260503012035 | 57 | 359 | 5.0 | 7.0 | 0.00 | 0.31 | 0.31 | 97 | 1017.6 |
| 20260503011536 | 58 | 359 | 4.0 | 6.0 | 0.00 | 0.31 | 0.31 | 97 | 1017.5 |
| 20260503011035 | 58 | 262 | 3.0 | 7.0 | 0.00 | 0.31 | 0.31 | 96 | 1017.4 |
| 20260503010534 | 58 | 262 | 4.0 | 7.0 | 0.00 | 0.31 | 0.31 | 96 | 1017.4 |
| 20260503010034 | 58 | 251 | 3.0 | 12.0 | 0.00 | 0.31 | 0.31 | 94 | 1017.3 |
| 20260503005636 | 59 | 246 | 4.0 | 12.0 | 0.00 | 0.31 | 0.31 | 93 | 1017.2 |
| 20260503005031 | 59 | 237 | 5.0 | 12.0 | 0.00 | 0.31 | 0.31 | 91 | 1017.2 |
| 20260503004530 | 60 | 220 | 4.0 | 9.0 | 0.00 | 0.31 | 0.31 | 93 | 1017.1 |
| 20260503004030 | 60 | 193 | 5.0 | 11.0 | 0.00 | 0.31 | 0.31 | 91 | 1017.1 |
| 20260503003529 | 60 | 217 | 5.0 | 11.0 | 0.00 | 0.31 | 0.31 | 90 | 1017.1 |
| 20260503003034 | 60 | 250 | 6.0 | 10.0 | 0.00 | 0.31 | 0.31 | 89 | 1017.1 |
| 20260503002528 | 60 | 184 | 5.0 | 10.0 | 0.00 | 0.31 | 0.31 | 90 | 1017.0 |
| 20260503002027 | 60 | 187 | 4.0 | 10.0 | 0.00 | 0.31 | 0.31 | 90 | 1016.9 |
| 20260503001527 | 60 | 128 | 4.0 | 10.0 | 0.00 | 0.31 | 0.31 | 90 | 1016.7 |
| 20260503001027 | 60 | 359 | 5.0 | 11.0 | 0.00 | 0.31 | 0.31 | 90 | 1016.8 |
| 20260503000526 | 60 | 257 | 5.0 | 11.0 | 0.00 | 0.31 | 0.31 | 91 | 1016.6 |
| 20260503000030 | 60 | 206 | 6.0 | 12.0 | 0.00 | 0.31 | 0.31 | 92 | 1016.7 |
| 20260502235629 | 59 | 183 | 4.0 | 10.0 | 0.00 | 0.31 | 0.31 | 94 | 1016.6 |
| 20260502235029 | 59 | 249 | 4.0 | 10.0 | 0.00 | 0.31 | 0.31 | 94 | 1016.6 |
| 20260502234546 | 59 | 252 | 1.0 | 10.0 | 0.00 | 0.31 | 0.31 | 95 | 1016.4 |